| time (UTC) | temp C | wind direction | speed KPH | gust KPH | rain 1hr cm | rain 24hr cm | rain mn cm | humidity % | barometer mb |
| 20260502151924 | 30 | 67 | 1.6 | 4.8 | 0.00 | 0.00 | 0.00 | 82 | 1010.4 |
| 20260502150924 | 30 | 112 | 0.0 | 0.0 | 0.00 | 0.00 | 0.00 | 82 | 1010.3 |
| 20260502122949 | 30 | 0 | 14.5 | 32.2 | 0.00 | 0.00 | 0.00 | 78 | 1007.6 |
| 20260502121948 | 30 | 225 | 3.2 | 6.4 | 0.00 | 0.00 | 0.00 | 78 | 1007.6 |
| 20260502120951 | 31 | 0 | 1.6 | 3.2 | 0.00 | 0.00 | 0.00 | 79 | 1007.6 |
| 20260502114945 | 31 | 67 | 11.3 | 25.7 | 0.00 | 0.00 | 0.00 | 79 | 1007.5 |
| 20260502113944 | 31 | 67 | 12.9 | 29.0 | 0.00 | 0.00 | 0.00 | 78 | 1007.2 |
| 20260502112943 | 31 | 67 | 17.7 | 40.2 | 0.00 | 0.00 | 0.00 | 75 | 1007.3 |
| 20260502111944 | 32 | 112 | 12.9 | 30.6 | 0.00 | 0.00 | 0.00 | 75 | 1007.2 |
| 20260502110941 | 32 | 67 | 0.0 | 0.0 | 0.00 | 0.00 | 0.00 | 75 | 1007.1 |
| 20260502105940 | 32 | 0 | 9.7 | 20.9 | 0.00 | 0.00 | 0.00 | 74 | 1007.1 |
| 20260502104938 | 32 | 202 | 3.2 | 8.0 | 0.00 | 0.00 | 0.00 | 76 | 1007.0 |
| 20260502103936 | 32 | 112 | 11.3 | 27.4 | 0.00 | 0.00 | 0.00 | 75 | 1007.0 |
| 20260502102937 | 32 | 112 | 6.4 | 14.5 | 0.00 | 0.00 | 0.00 | 78 | 1006.8 |
| 20260502101933 | 32 | 202 | 4.8 | 12.9 | 0.00 | 0.00 | 0.00 | 79 | 1006.8 |
| 20260502100932 | 32 | 112 | 14.5 | 33.8 | 0.00 | 0.00 | 0.00 | 78 | 1006.9 |
| 20260502090914 | 34 | 112 | 3.2 | 8.0 | 0.00 | 0.00 | 0.00 | 76 | 1007.2 |
| 20260502071216 | 35 | 315 | 30.6 | 70.8 | 0.00 | 0.00 | 0.00 | 71 | 1008.4 |
| 20260502070213 | 35 | 0 | 9.7 | 24.1 | 0.00 | 0.00 | 0.00 | 73 | 1008.6 |
| 20260502065212 | 35 | 112 | 30.6 | 69.2 | 0.00 | 0.00 | 0.00 | 72 | 1009.0 |
| 20260502064212 | 35 | 315 | 4.8 | 9.7 | 0.00 | 0.00 | 0.00 | 72 | 1009.0 |
| 20260502063212 | 35 | 315 | 11.3 | 27.4 | 0.00 | 0.00 | 0.00 | 71 | 1009.3 |
| 20260502062209 | 35 | 225 | 16.1 | 38.6 | 0.00 | 0.00 | 0.00 | 73 | 1009.6 |
| 20260502061207 | 35 | 0 | 16.1 | 38.6 | 0.00 | 0.00 | 0.00 | 73 | 1009.6 |
| 20260502060207 | 35 | 112 | 17.7 | 41.8 | 0.00 | 0.00 | 0.00 | 71 | 1009.6 |
| 20260502055206 | 35 | 0 | 14.5 | 32.2 | 0.00 | 0.00 | 0.00 | 72 | 1009.9 |
| 20260502054204 | 35 | 0 | 9.7 | 20.9 | 0.00 | 0.00 | 0.00 | 73 | 1010.0 |
| 20260502053207 | 35 | 112 | 14.5 | 32.2 | 0.00 | 0.00 | 0.00 | 73 | 1010.2 |
| 20260502052203 | 35 | 0 | 11.3 | 25.7 | 0.00 | 0.00 | 0.00 | 74 | 1010.2 |
| 20260502051202 | 35 | 0 | 19.3 | 45.1 | 0.00 | 0.00 | 0.00 | 75 | 1010.5 |
| 20260502050158 | 35 | 225 | 8.0 | 17.7 | 0.00 | 0.00 | 0.00 | 76 | 1010.6 |
| 20260502045158 | 36 | 112 | 0.0 | 0.0 | 0.00 | 0.00 | 0.00 | 76 | 1010.7 |
| 20260502044158 | 35 | 315 | 0.0 | 0.0 | 0.00 | 0.00 | 0.00 | 76 | 1010.8 |
| 20260502043202 | 35 | 67 | 0.0 | 0.0 | 0.00 | 0.00 | 0.00 | 77 | 1011.0 |
| 20260502042154 | 35 | 315 | 0.0 | 0.0 | 0.00 | 0.00 | 0.00 | 76 | 1011.1 |
| 20260502041154 | 35 | 135 | 0.0 | 0.0 | 0.00 | 0.00 | 0.00 | 73 | 1011.2 |
| 20260502040152 | 35 | 112 | 0.0 | 0.0 | 0.00 | 0.00 | 0.00 | 74 | 1011.1 |
| 20260502035151 | 34 | 0 | 0.0 | 0.0 | 0.00 | 0.00 | 0.00 | 73 | 1011.1 |
| 20260502034149 | 35 | 0 | 0.0 | 0.0 | 0.00 | 0.00 | 0.00 | 74 | 1011.2 |
| 20260502033147 | 34 | 67 | 0.0 | 0.0 | 0.00 | 0.00 | 0.00 | 74 | 1011.2 |
| 20260502032140 | 35 | 112 | 0.0 | 0.0 | 0.00 | 0.00 | 0.00 | 75 | 1011.1 |
| 20260502031138 | 35 | 0 | 0.0 | 0.0 | 0.00 | 0.00 | 0.00 | 75 | 1011.2 |
| 20260502030137 | 34 | 0 | 0.0 | 0.0 | 0.00 | 0.00 | 0.00 | 76 | 1011.2 |
| 20260502025136 | 34 | 135 | 0.0 | 0.0 | 0.00 | 0.00 | 0.00 | 80 | 1011.1 |
| 20260502024131 | 33 | 67 | 1.6 | 4.8 | 0.00 | 0.00 | 0.00 | 80 | 1011.2 |
| 20260502023129 | 33 | 112 | 19.3 | 43.5 | 0.00 | 0.00 | 0.00 | 81 | 1011.2 |
| 20260502022127 | 32 | 0 | 6.4 | 16.1 | 0.00 | 0.00 | 0.00 | 81 | 1011.2 |
| 20260502021126 | 32 | 225 | 0.0 | 1.6 | 0.00 | 0.00 | 0.00 | 80 | 1011.3 |
| 20260502020123 | 31 | 225 | 1.6 | 6.4 | 0.00 | 0.00 | 0.00 | 80 | 1011.3 |
| 20260502015122 | 31 | 225 | 0.0 | 0.0 | 0.00 | 0.00 | 0.00 | 80 | 1011.2 |
| 20260502014120 | 30 | 225 | 0.0 | 1.6 | 0.00 | 0.00 | 0.00 | 78 | 1011.2 |
| 20260502013118 | 30 | 0 | 14.5 | 32.2 | 0.00 | 0.00 | 0.00 | 76 | 1011.0 |
| 20260502012117 | 30 | 0 | 3.2 | 6.4 | 0.00 | 0.00 | 0.00 | 78 | 1011.1 |
| 20260502011117 | 28 | 225 | 0.0 | 0.0 | 0.00 | 0.00 | 0.00 | 78 | 1011.0 |
| 20260502010116 | 28 | 90 | 0.0 | 0.0 | 0.00 | 0.00 | 0.00 | 78 | 1010.9 |
| 20260502005122 | 28 | 112 | 0.0 | 0.0 | 0.00 | 0.00 | 0.00 | 78 | 1011.0 |
| 20260502004115 | 28 | 112 | 1.6 | 4.8 | 0.00 | 0.00 | 0.00 | 80 | 1011.0 |
| 20260502003113 | 27 | 112 | 0.0 | 0.0 | 0.00 | 0.00 | 0.00 | 80 | 1010.8 |
| 20260502002107 | 28 | 22 | 3.2 | 8.0 | 0.00 | 0.00 | 0.00 | 80 | 1010.9 |
| 20260502001107 | 28 | 270 | 11.3 | 25.7 | 0.00 | 0.00 | 0.00 | 80 | 1010.7 |
| 20260502000105 | 27 | 0 | 0.0 | 0.0 | 0.00 | 0.00 | 0.00 | 80 | 1010.6 |
| 20260501235104 | 28 | 0 | 6.4 | 14.5 | 0.00 | 0.00 | 0.00 | 80 | 1010.5 |
| 20260501234102 | 28 | 112 | 0.0 | 0.0 | 0.00 | 0.00 | 0.00 | 81 | 1010.3 |
| 20260501233104 | 28 | 225 | 0.0 | 0.0 | 0.00 | 0.00 | 0.00 | 81 | 1010.1 |
| 20260501232100 | 28 | 202 | 3.2 | 8.0 | 0.00 | 0.00 | 0.00 | 81 | 1010.2 |
| 20260501231059 | 28 | 22 | 1.6 | 4.8 | 0.00 | 0.00 | 0.00 | 83 | 1010.1 |
| 20260501230056 | 28 | 112 | 14.5 | 33.8 | 0.00 | 0.00 | 0.00 | 85 | 1010.1 |
| 20260501225053 | 28 | 22 | 27.4 | 62.8 | 0.00 | 0.00 | 0.00 | 85 | 1009.9 |
| 20260501224049 | 29 | 270 | 0.0 | 0.0 | 0.00 | 0.00 | 0.00 | 85 | 1009.7 |
| 20260501223049 | 28 | 0 | 4.8 | 11.3 | 0.00 | 0.00 | 0.00 | 86 | 1009.5 |
| 20260501222048 | 30 | 202 | 6.4 | 16.1 | 0.00 | 0.00 | 0.00 | 84 | 1009.5 |
| 20260501221047 | 30 | 67 | 0.0 | 1.6 | 0.00 | 0.00 | 0.00 | 85 | 1009.4 |
| 20260501220044 | 30 | 202 | 6.4 | 16.1 | 0.00 | 0.00 | 0.00 | 84 | 1009.4 |
| 20260501215042 | 30 | 202 | 3.2 | 9.7 | 0.00 | 0.00 | 0.00 | 85 | 1009.4 |
| 20260501214033 | 30 | 67 | 0.0 | 0.0 | 0.00 | 0.00 | 0.00 | 84 | 1009.2 |
| 20260501213033 | 30 | 315 | 53.1 | 120.7 | 0.00 | 0.00 | 0.00 | 85 | 1009.2 |
| 20260501212034 | 30 | 112 | 11.3 | 25.7 | 0.00 | 0.00 | 0.00 | 84 | 1009.1 |
| 20260501211032 | 30 | 67 | 11.3 | 24.1 | 0.00 | 0.00 | 0.00 | 84 | 1009.1 |
| 20260501210030 | 30 | 67 | 14.5 | 32.2 | 0.00 | 0.00 | 0.00 | 84 | 1009.1 |
| 20260501205031 | 30 | 202 | 0.0 | 0.0 | 0.00 | 0.00 | 0.00 | 84 | 1009.1 |
| 20260501204028 | 30 | 67 | 0.0 | 0.0 | 0.00 | 0.00 | 0.00 | 84 | 1009.1 |
| 20260501203052 | 30 | 202 | 0.0 | 0.0 | 0.00 | 0.00 | 0.00 | 83 | 1009.0 |
| 20260501202026 | 30 | 67 | 0.0 | 0.0 | 0.00 | 0.00 | 0.00 | 83 | 1008.9 |
| 20260501201025 | 30 | 67 | 0.0 | 0.0 | 0.00 | 0.00 | 0.00 | 83 | 1009.1 |
| 20260501200024 | 30 | 202 | 0.0 | 0.0 | 0.00 | 0.00 | 0.00 | 83 | 1009.1 |
| 20260501195022 | 30 | 315 | 0.0 | 0.0 | 0.00 | 0.00 | 0.00 | 83 | 1009.0 |
| 20260501194022 | 30 | 67 | 0.0 | 0.0 | 0.00 | 0.00 | 0.00 | 84 | 1008.9 |
| 20260501193020 | 30 | 202 | 0.0 | 0.0 | 0.00 | 0.00 | 0.00 | 83 | 1009.0 |
| 20260501192018 | 30 | 202 | 0.0 | 0.0 | 0.00 | 0.00 | 0.00 | 83 | 1009.0 |
| 20260501191016 | 30 | 67 | 0.0 | 0.0 | 0.00 | 0.00 | 0.00 | 84 | 1009.0 |
| 20260501190013 | 30 | 112 | 0.0 | 0.0 | 0.00 | 0.00 | 0.00 | 84 | 1009.3 |
| 20260501185009 | 30 | 315 | 0.0 | 0.0 | 0.00 | 0.00 | 0.00 | 84 | 1009.5 |
| 20260501184009 | 30 | 67 | 0.0 | 0.0 | 0.00 | 0.00 | 0.00 | 83 | 1009.6 |
| 20260501183007 | 30 | 112 | 0.0 | 0.0 | 0.00 | 0.00 | 0.00 | 83 | 1009.8 |
| 20260501182007 | 30 | 67 | 0.0 | 0.0 | 0.00 | 0.00 | 0.00 | 83 | 1009.8 |
| 20260501180038 | 30 | 67 | 0.0 | 1.6 | 0.00 | 0.00 | 0.00 | 84 | 1009.9 |
| 20260501175036 | 30 | 0 | 0.0 | 0.0 | 0.00 | 0.00 | 0.00 | 86 | 1010.2 |
| 20260501174036 | 30 | 112 | 0.0 | 0.0 | 0.00 | 0.00 | 0.00 | 89 | 1010.3 |
| 20260501173035 | 29 | 112 | 1.6 | 4.8 | 0.00 | 0.00 | 0.00 | 90 | 1010.5 |
| 20260501172033 | 29 | 112 | 4.8 | 9.7 | 0.00 | 0.00 | 0.00 | 90 | 1010.7 |
| 20260501171031 | 30 | 67 | 0.0 | 0.0 | 0.00 | 0.00 | 0.00 | 90 | 1010.9 |
| 20260501170031 | 30 | 0 | 4.8 | 12.9 | 0.00 | 0.00 | 0.00 | 90 | 1011.0 |
| 20260501165031 | 30 | 112 | 0.0 | 0.0 | 0.23 | 0.00 | 0.48 | 90 | 1010.9 |
| 20260501164029 | 30 | 0 | 0.0 | 0.0 | 0.23 | 0.00 | 0.48 | 89 | 1010.9 |
| 20260501163027 | 30 | 0 | 0.0 | 0.0 | 0.23 | 0.00 | 0.48 | 89 | 1010.8 |
| 20260501162026 | 30 | 0 | 0.0 | 0.0 | 0.23 | 0.00 | 0.48 | 91 | 1010.8 |
| 20260501161024 | 30 | 67 | 0.0 | 0.0 | 0.23 | 0.00 | 0.48 | 91 | 1010.7 |